TimePDT,TemperatureF,Dew PointF,Humidity,Sea Level PressureIn,VisibilityMPH,Wind Direction,Wind SpeedMPH,Gust SpeedMPH,PrecipitationIn,Events,Conditions,WindDirDegrees,DateUTC
12:53 AM,71.1,59.0,66,29.82,10.0,Calm,Calm,-,N/A,,Clear,0,2013-07-08 07:53:00
1:53 AM,69.1,60.1,73,29.83,10.0,Calm,Calm,-,N/A,,Clear,0,2013-07-08 08:53:00
2:53 AM,68.0,60.1,76,29.82,10.0,Calm,Calm,-,N/A,,Clear,0,2013-07-08 09:53:00
3:53 AM,66.9,60.1,79,29.83,10.0,Calm,Calm,-,N/A,,Clear,0,2013-07-08 10:53:00
4:53 AM,66.9,60.1,79,29.83,10.0,Calm,Calm,-,N/A,,Clear,0,2013-07-08 11:53:00
5:53 AM,66.0,60.1,81,29.84,9.0,Calm,Calm,-,N/A,,Clear,0,2013-07-08 12:53:00
6:53 AM,66.9,59.0,76,29.85,10.0,Calm,Calm,-,N/A,,Clear,0,2013-07-08 13:53:00
7:53 AM,71.1,60.1,68,29.86,10.0,Calm,Calm,-,N/A,,Clear,0,2013-07-08 14:53:00
8:53 AM,75.9,60.1,58,29.86,10.0,Calm,Calm,-,N/A,,Clear,0,2013-07-08 15:53:00
9:53 AM,81.0,57.9,45,29.86,10.0,Calm,Calm,-,N/A,,Clear,0,2013-07-08 16:53:00
10:53 AM,87.1,57.9,37,29.86,10.0,WNW,6.9,-,N/A,,Clear,290,2013-07-08 17:53:00
11:53 AM,89.1,57.0,34,29.86,10.0,West,8.1,-,N/A,,Clear,260,2013-07-08 18:53:00
12:53 PM,93.0,59.0,32,29.84,10.0,West,10.4,-,N/A,,Clear,270,2013-07-08 19:53:00
1:53 PM,97.0,57.0,26,29.84,10.0,West,8.1,-,N/A,,Clear,270,2013-07-08 20:53:00
2:53 PM,98.1,57.0,25,29.83,10.0,West,10.4,19.6,N/A,,Clear,270,2013-07-08 21:53:00
3:53 PM,98.1,57.0,25,29.81,10.0,West,11.5,19.6,N/A,,Clear,280,2013-07-08 22:53:00
4:53 PM,98.1,59.0,27,29.81,10.0,West,11.5,-,N/A,,Clear,280,2013-07-08 23:53:00
5:53 PM,96.1,55.9,26,29.80,10.0,West,10.4,-,N/A,,Clear,270,2013-07-09 00:53:00
6:53 PM,93.0,51.1,24,29.81,10.0,West,8.1,-,N/A,,Clear,270,2013-07-09 01:53:00
7:53 PM,87.1,52.0,30,29.83,10.0,West,6.9,-,N/A,,Clear,260,2013-07-09 02:53:00
8:53 PM,84.9,48.9,29,29.85,10.0,Variable,3.5,-,N/A,,Clear,0,2013-07-09 03:53:00
9:53 PM,81.0,50.0,34,29.87,10.0,West,4.6,-,N/A,,Clear,260,2013-07-09 04:53:00
10:53 PM,80.1,51.1,36,29.89,10.0,Calm,Calm,-,N/A,,Clear,0,2013-07-09 05:53:00
11:53 PM,78.1,51.1,39,29.89,10.0,Calm,Calm,-,N/A,,Clear,0,2013-07-09 06:53:00